This demonstration page uses our WeatherBlox Daily Observations layout. Learn more.

Left ArrowRight Arrow

Hourly Observations for October 7, 2022

Temp ( °F °C ) Dew Point ( °F °C ) Humidity (%) Winds ( mph kmh ) Pressure ( in mb ) Visibility ( mi km ) Precip ( " mm )
12:15 am 00:15 Clear 61 16 54 12 77 77 Calm 30.05 1018 10 16 0.00 0.00
12:35 am 00:35 Clear 57 14 54 12 88 88 WNW 3 6 30.05 1018 10 16 0.00 0.00
12:55 am 00:55 Clear 55 13 54 12 94 94 W 3 6 30.05 1018 10 16 0.00 0.00
1:15 am 01:15 Clear 55 13 54 12 94 94 W 3 6 30.04 1017 10 16 0.00 0.00
1:35 am 01:35 Clear 55 13 54 12 94 94 W 3 6 30.04 1017 10 16 0.00 0.00
1:55 am 01:55 Clear 54 12 54 12 100 100 Calm 30.04 1017 10 16 0.00 0.00
2:15 am 02:15 Clear 54 12 54 12 100 100 W 3 6 30.04 1017 10 16 0.00 0.00
2:35 am 02:35 Clear 55 13 52 11 88 88 Calm 30.04 1017 10 16 0.00 0.00
2:55 am 02:55 Clear 55 13 52 11 88 88 Calm 30.04 1017 10 16 0.00 0.00
3:15 am 03:15 Clear 54 12 52 11 94 94 W 3 6 30.04 1017 10 16 0.00 0.00
3:35 am 03:35 Clear 54 12 52 11 94 94 W 3 6 30.04 1017 10 16 0.00 0.00
3:55 am 03:55 Clear 52 11 52 11 100 100 Calm 30.03 1017 10 16 0.00 0.00
4:15 am 04:15 Clear 52 11 52 11 100 100 WNW 5 7 30.03 1017 10 16 0.00 0.00
4:35 am 04:35 Clear 52 11 52 11 100 100 Calm 30.03 1017 10 16 0.00 0.00
4:55 am 04:55 undefined 52 11 50 10 94 94 Calm 30.03 1017 N/A 0.00 0.00
5:15 am 05:15 undefined 52 11 52 11 100 100 SSW 3 6 30.05 1017 N/A 0.00 0.00
5:35 am 05:35 Clear 52 11 50 10 94 94 Calm 30.05 1017 10 16 0.00 0.00
5:55 am 05:55 undefined 52 11 50 10 94 94 Calm 30.05 1017 N/A 0.00 0.00
6:15 am 06:15 Clear 50 10 50 10 100 100 Calm 30.06 1018 10 16 0.00 0.00
6:35 am 06:35 Clear 50 10 50 10 100 100 Calm 30.06 1018 10 16 0.00 0.00
6:55 am 06:55 Clear 48 9 48 9 100 100 W 3 6 30.06 1018 10 16 0.00 0.00
7:15 am 07:15 Sunny 50 10 50 10 100 100 Calm 30.07 1018 10 16 0.00 0.00
7:35 am 07:35 Sunny 50 10 50 10 100 100 Calm 30.07 1018 10 16 0.00 0.00
7:55 am 07:55 Sunny 50 10 50 10 100 100 Calm 30.07 1018 10 16 0.00 0.00
8:15 am 08:15 Sunny 52 11 50 10 94 94 Calm 30.08 1018 10 16 0.00 0.00
8:35 am 08:35 Sunny 54 12 52 11 94 94 Calm 30.07 1018 10 16 0.00 0.00
8:55 am 08:55 Sunny 57 14 52 11 82 82 Calm 30.07 1018 10 16 0.00 0.00
9:15 am 09:15 Sunny 61 16 52 11 72 72 Calm 30.07 1018 10 16 0.00 0.00
9:35 am 09:35 Sunny 61 16 54 12 77 77 Calm 30.08 1019 10 16 0.00 0.00
9:55 am 09:55 Sunny 64 18 54 12 68 68 Calm 30.07 1018 10 16 0.00 0.00
10:15 am 10:15 Sunny 66 19 54 12 64 64 Calm 30.06 1018 10 16 0.00 0.00
10:35 am 10:35 Sunny 68 20 54 12 60 60 Calm 30.07 1018 10 16 0.00 0.00
10:55 am 10:55 Sunny 72 22 54 12 53 53 Calm 30.06 1018 10 16 0.00 0.00
11:15 am 11:15 Sunny 72 22 54 12 53 53 SW 6 9 30.06 1018 10 16 0.00 0.00
11:35 am 11:35 Sunny 73 23 54 12 50 50 W 6 9 30.06 1018 10 16 0.00 0.00
11:55 am 11:55 Sunny 73 23 52 11 47 47 W 3 6 30.05 1017 10 16 0.00 0.00
12:15 pm 12:15 Sunny 75 24 54 12 47 47 W 5 7 30.05 1017 10 16 0.00 0.00
12:35 pm 12:35 Sunny 77 25 52 11 41 41 Calm 30.03 1017 10 16 0.00 0.00
12:55 pm 12:55 Sunny 75 24 50 10 41 41 Calm 30.04 1017 10 16 0.00 0.00
1:15 pm 13:15 Sunny 77 25 52 11 41 41 W 10 17 30.03 1017 10 16 0.00 0.00
1:35 pm 13:35 Sunny 77 25 52 11 41 41 W 10 17 30.01 1016 10 16 0.00 0.00
1:55 pm 13:55 Sunny 77 25 52 11 41 41 WNW 9 15 30.01 1016 10 16 0.00 0.00
2:15 pm 14:15 Sunny 79 26 52 11 39 39 W 9 15 30.00 1016 10 16 0.00 0.00
2:35 pm 14:35 Sunny 79 26 52 11 39 39 W 6 9 29.99 1016 10 16 0.00 0.00
2:55 pm 14:55 Sunny 79 26 52 11 39 39 NW 5 7 29.98 1015 10 16 0.00 0.00
3:15 pm 15:15 Partly Cloudy 79 26 52 11 39 39 W 12 19 29.98 1015 10 16 0.00 0.00
3:35 pm 15:35 Mostly Cloudy 79 26 54 12 42 42 W 14 22 29.98 1015 10 16 0.00 0.00
3:55 pm 15:55 Partly Cloudy 79 26 52 11 39 39 W 12 19 29.98 1015 10 16 0.00 0.00
4:15 pm 16:15 Partly Cloudy 77 25 52 11 41 41 W 7 11 29.98 1015 10 16 0.00 0.00
4:35 pm 16:35 Cloudy 75 24 54 12 47 47 Calm 29.99 1015 10 16 0.00 0.00
4:55 pm 16:55 Cloudy 73 23 55 13 53 53 W 3 6 29.99 1015 10 16 0.00 0.00
5:15 pm 17:15 Cloudy 73 23 55 13 53 53 W 5 7 29.99 1015 10 16 0.00 0.00
5:35 pm 17:35 Cloudy 72 22 57 14 60 60 W 6 9 29.99 1016 10 16 0.00 0.00
5:55 pm 17:55 Cloudy 72 22 57 14 60 60 WNW 3 6 29.99 1016 10 16 0.00 0.00
6:15 pm 18:15 Cloudy 72 22 55 13 57 57 NW 8 13 30.00 1016 10 16 0.00 0.00
6:35 pm 18:35 Cloudy 72 22 54 12 53 53 NNW 9 15 30.01 1016 10 16 0.00 0.00
6:55 pm 18:55 Cloudy 70 21 55 13 60 60 NNW 16 26 30.02 1017 10 16 0.00 0.00
7:15 pm 19:15 Cloudy 68 20 55 13 64 64 NNW 20 31 30.04 1017 10 16 0.00 0.00
7:35 pm 19:35 Cloudy 64 18 54 12 68 68 N 14 22 30.07 1018 10 16 0.00 0.00
7:55 pm 19:55 Cloudy 63 17 52 11 68 68 N 16 26 30.08 1018 10 16 0.00 0.00
8:15 pm 20:15 Cloudy 63 17 52 11 68 68 NNW 17 28 30.08 1019 10 16 0.00 0.00
8:35 pm 20:35 Cloudy 61 16 52 11 72 72 NNW 14 22 30.10 1019 10 16 0.00 0.00
8:55 pm 20:55 Cloudy 61 16 52 11 72 72 NNW 16 26 30.11 1020 10 16 0.00 0.00
9:15 pm 21:15 Cloudy 61 16 52 11 72 72 NNW 9 15 30.12 1020 10 16 0.00 0.00
9:35 pm 21:35 Cloudy 59 15 50 10 72 72 N 13 20 30.13 1020 10 16 0.00 0.00
9:55 pm 21:55 Cloudy 59 15 50 10 72 72 NNW 13 20 30.14 1021 10 16 0.00 0.00
10:15 pm 22:15 Cloudy 59 15 50 10 72 72 N 9 15 30.15 1021 10 16 0.00 0.00
10:35 pm 22:35 Mostly Cloudy 59 15 50 10 72 72 N 13 20 30.16 1021 10 16 0.00 0.00
10:55 pm 22:55 Partly Cloudy 57 14 46 8 67 67 NNW 13 20 30.16 1021 10 16 0.00 0.00
11:15 pm 23:15 Partly Cloudy 55 13 46 8 72 72 NNW 15 24 30.17 1022 10 16 0.00 0.00
11:35 pm 23:35 Clear 55 13 46 8 72 72 N 13 20 30.18 1022 10 16 0.00 0.00
11:55 pm 23:55 Partly Cloudy 55 13 46 8 72 72 NNW 13 20 30.18 1022 10 16 0.00 0.00

Powered by AerisWeather